www.pogodaiklimat.ru

Погода и климат >> Архив погоды >> Украина >> Любешов


ПОГОДА в Любешове

  • Прогноз погоды в Любешове
  • Монитор погоды в Любешове

АРХИВ ПОГОДЫ в Любешове

Время (UTC), дата Ветер
(напр.,м/с)
 
Видим.   Явления Облачность Т
(С)
Тd
(С)
f
(%)
Тe
(С)
Тes
(С)
Комфортность P
(гПа)
Po
(гПа)
Тmin
(С)
Tmax
(С)
R
(мм)
R24
(мм)
S
(см)
18 17.06 СЗ 1 10 км 8/8 800 м
[Sc]
+19.5 +15.4 77 +22 +22 комфорт 1019.0 1001.2 +24.2
21 17.06 штиль 0 10 км 4/4 600 м
[Sc]
+18.1 +15.5 85 +18 +18 1019.0 1001.1
00 18.06 З 1 10 км 8/0
[Ac trans]
+16.8 +15.3 91 +18 +18 1020.0 1002.0
03 18.06 С 1 10 км 9/0
[Ac lent]
+17.0 +15.5 91 +18 +18 1020.0 1002.0
06 18.06 С 2 10 км 9/0
[Ac lent]
+18.7 +15.8 83 +20 +20 1020.0 1002.1 +16.7
09 18.06 СЗ 2 10 км 5/4 1000 м
[Cu med, cong Cc]
+23.1 +14.4 58 +27 +33 душно 1020.0 1002.3
12 18.06 СВ 2 10 км 4/3 1000 м
[Cu med, cong Ci sp]
+26.5 +14.6 48 +29 +40 жарко 1019.0 1001.6
15 18.06 СВ 1 10 км 4/3 1000 м
[Cu med, cong Ci fib]
+26.7 +13.4 44 +29 +33 жарко 1018.0 1000.6
18 18.06 штиль 0 10 км 3/1 1000 м
[Sc Ci fib]
+23.7 +16.5 64 +27 +27 жарко 1017.0 999.4 +27.1
21 18.06 СВ 1 10 км ясно +19.0 +17.0 88 +22 +22 комфорт 1018.0 1000.2
00 19.06 штиль 0 10 км ясно +16.2 +14.7 91 +16 +16 1019.0 1000.9
03 19.06 штиль 0 10 км 3/0
[Ci fib]
+14.3 +13.3 94 +14 +14 1018.0 999.8
06 19.06 В 1 10 км 3/0
[Ci fib]
+22.5 +14.6 61 +26 +32 жарко 1018.0 1000.3 +14.0
09 19.06 ЮВ 3 10 км 6 баллов +26.1 +13.2 45 +28 +33 жарко 1017.0 999.6
12 19.06 В 3 10 км 9/5 1000 м
[Sc Cs]
+27.9 +13.8 42 +30 +30 жарко 1015.0 997.7
15 19.06 В 2 10 км 10 баллов +27.9 +14.5 44 +30 +30 жарко 1014.0 996.7
18 19.06 В 1 10 км 9/0
[Ci]
+25.7 +16.5 57 +29 +29 душно 1014.0 996.6 +28.6
21 19.06 В 1 10 км 9/0
[Ci]
+21.4 +17.4 78 +25 +25 комфорт 1014.0 996.4
00 20.06 штиль 0 10 км 10/0
[Ac und]
+20.8 +17.0 79 +24 +24 комфорт 1013.0 995.3
03 20.06 СВ 2 10 км в посл. час гроза {ливн. осадки} 9/8 540 м
[Cb calv Ci ing]
+19.2 +18.4 95 +22 +22 комфорт 1013.0 995.3
06 20.06 СВ 2 10 км {гроза, ливн. осадки} 6/3 600 м
[Cb calv Ac trans Ci fib]
+19.7 +17.7 88 +23 +26 комфорт 1014.0 996.3 +19.0 4
09 20.06 В 3 10 км 6/3 600 м
[Cu hum Ci fib]
+25.9 +19.5 68 +31 +37 очень
душно
1012.0 994.7
12 20.06 ЮВ 6 10 км гроза без осадков 9/9 630 м
[Cb cap]
+22.5 +17.8 75 +28 +28 душно 1013.0 995.5
15 20.06 ЮВ 3 10 км в посл. час гроза {ливн. осадки} 8/3 600 м
[Cb cap Ci fib]
+24.7 +19.7 74 +30 +30 очень
душно
1011.0 993.6
18 20.06 ЮВ 1 10 км {гроза, ливн. осадки} 8/4 600 м
[Cb calv Ac lent Ci sp]
+24.1 +20.6 81 +30 +30 очень
душно
1011.0 993.6 +26.3 0.0
21 20.06 В 2 10 км зарница 6 баллов +18.8 +17.1 90 +21 +21 комфорт 1013.0 995.2
00 21.06 ЮВ 3 10 км {ливн. осадки} 9/6 800 м
[Sc Ac As]
+18.4 +17.1 92 +19 +19 1013.0 995.2 0.7
03 21.06 штиль 0 10 км 5/1 300 м
[Cb cap Ac lent Ci fib]
+17.6 +16.6 94 +18 +18 1013.0 995.2
06 21.06 ЮЗ 1 10 км {ливн. осадки} 5/0
[Cs]
+24.3 +18.7 71 +29 +32 душно 1013.0 995.6 +17.6 1
09 21.06 Ю 2 10 км 4/3
[Cu hum Ci fib]
+28.3 +17.5 52 +32 +44 душно 1014.0 996.8
12 21.06 ЮЗ 3 10 км 5/5 1000 м
[Cu hum]
+30.3 +16.3 43 +34 +39 очень
душно
1013.0 995.9
15 21.06 ЮЗ 4 10 км 8/8 600 м
[Cb cap]
+30.5 +16.8 44 +34 +34 очень
душно
1012.0 994.9
18 21.06 ЮЗ 6 10 км гроза без осадков 9/9 540 м
[Cb cap]
+22.2 +16.7 71 +27 +27 душно 1015.0 997.4 +31.4
21 21.06 штиль 0 4000 м в посл. час гроза {ливн. осадки} 9/8 570 м
[Cb calv Ac lent]
+19.2 +18.5 96 +21 +21 комфорт 1015.0 997.2
00 22.06 ЮВ 2 4000 м дымка {гроза, ливн. осадки} 9/6 540 м
[Cb calv Ac lent]
+18.4 +17.7 96 +20 +20 1016.0 998.2 6
03 22.06 З 1 4000 м дымка 10/10 660 м
[Sc]
+18.3 +17.5 95 +20 +20 1016.0 998.2
06 22.06 СЗ 1 4000 м слаб. морось 10/0
[As op]
+19.6 +18.9 96 +23 +23 комфорт 1018.0 1000.2 +18.3 6
09 22.06 С 3 4000 м слаб. дождь {морось} 10/10 420 м
[Frnb Ns]
+21.5 +19.4 88 +26 +26 душно 1019.0 1001.3
12 22.06 СЗ 3 10 км {дождь, морось} 10/10 570 м
[Cb calv]
+22.5 +18.3 77 +28 +28 душно 1019.0 1001.4 0.5
15 22.06 С 3 10 км 10 баллов +24.6 +18.5 69 +29 +29 душно 1019.0 1001.5
18 22.06 штиль 0 10 км 8/0
[Ac lent Cc]
+22.9 +17.1 70 +28 +28 душно 1019.0 1001.4 +25.0 0.5
21 22.06 С 1 10 км 6 баллов +20.2 +17.2 83 +24 +24 комфорт 1019.0 1001.2
00 23.06 С 2 10 км 10/10 660 м
[Sc]
+18.7 +15.9 84 +20 +20 1019.0 1001.1
03 23.06 С 1 10 км н/о +16.2 +14.0 87 +17 +17 1019.0 1000.9
06 23.06 С 1 10 км {ливн. осадки} 10/10 660 м
[Sc diur, vesp]
+17.4 +15.6 89 +18 +18 1019.0 1001.0 +16.1 0.0
09 23.06 С 1 10 км 10 баллов +19.0 +17.0 88 +22 +22 комфорт 1019.0 1001.1
12 23.06 СВ 2 10 км 9/9 720 м
[Cb calv]
+22.7 +17.8 74 +28 +28 душно 1019.0 1001.4
15 23.06 СВ 2 10 км 6 баллов +23.1 +18.2 74 +29 +31 очень
душно
1019.0 1001.4
18 23.06 СВ 3 10 км 3/1 600 м
[Sc Ci fib]
+21.5 +16.9 75 +25 +25 комфорт 1020.0 1002.3 +23.8
21 23.06 штиль 0 10 км 3 балла +17.8 +16.5 92 +18 +18 1022.0 1004.0
00 24.06 штиль 0 10 км ясно +15.9 +14.8 93 +16 +16 1022.0 1003.9
03 24.06 штиль 0 10 км ясно +15.4 +14.3 93 +15 +16 1022.0 1003.8
06 24.06 СВ 4 10 км 4/4 1000 м
[Cu hum]
+19.6 +15.2 76 +22 +25 комфорт 1024.0 1006.1 +15.0
09 24.06 СВ 5 10 км 6 баллов +23.3 +15.1 60 +27 +31 душно 1024.0 1006.3
12 24.06 СВ 3 10 км 3 балла +25.7 +15.1 52 +29 +37 душно 1024.0 1006.4
15 24.06 СВ 3 10 км ясно +26.7 +13.8 45 +29 +34 жарко 1024.0 1006.5

 

Местоположение метеостанции Любешов (Волынская область, Украина): широта 51.67 долгота 25.27 высота над уровнем моря 152 м.

В архиве по умолчанию представлена погода в Любешове за последнюю неделю. Архивные данные за месяц целиком и за предыдущие месяцы, начиная с января 2011 года, Вы можете получить, выбрав интересующий диапазон дат из раскрывающегося списка и нажав кнопку "Ввод!".


*Определитесь, кто Вы:
робот инопланетянин человек

Внимание! Время в таблицах - всемирное. Для получения местного времени необходимо прибавить поправку, которая равна 2 ч.

Смотрите также архив погоды в соседних городах и на ближайших метеорологических станциях:

Погода в Маневичах (Волынская область, Украина) (47 км)
Погода в Свитязи (Волынская область, Украина) (54 км)
Погода в Дрогичине (Брестская область, Беларусь) (60 км)
Погода в Ковеле (Волынская область, Украина) (65 км)
Погода в Пинске (Брестская область, Беларусь) (74 км)
Погода в Сарнах (Ровенская область, Украина) (103 км)
Погода в Луцке (Волынская область, Украина) (109 км)
Погода в Пружанах (Брестская область, Беларусь) (111 км)
Погода в Владимире-Волынском (Волынская область, Украина) (114 км)
Погода в Ивацевичах (Брестская область, Беларусь) (115 км)

Пояснения к столбцам:

Ветер - указаны скорость ветра в м/с - средняя за 10 мин, порывы в срок и между сроками (в фигурных скобках) и направление, откуда дует ветер: С - северный, СВ - северо-восточный, В - восточный, ЮВ - юго-восточный, Ю - южный, ЮЗ - юго-западный, З - западный, СЗ - северо-западный.
Видимость - горизонтальная дальность видимости в метрах или километрах. При видимости от 1 до 10 км при отсутствии осадков обычно наблюдается дымка, при ухудшении видимости до 1 км и менее - туман. В сухую погоду видимость может ухудшаться дымом, пылью или мглою.
Явления - указаны атмосферные явления, наблюдавшиеся в срок или в последний час перед сроком; фигурными скобками обозначены явления, наблюдавшиеся между сроками (за 1-3 часа до срока); квадратными скобками обозначены град или гололедные отложения с указанием их диаметра в мм.
Облачность - указаны через наклонную черту общая и нижняя облачность в баллах и высота нижней границы облаков в метрах; квадратными скобками обозначены формы облаков: Ci - перистые, Cs - перисто-слоистые, Cc - перисто-кучевые, Ac - высококучевые, As - высокослоистые, Sc - слоисто-кучевые, Ns - слоисто-дождевые, Cu - кучевые, Cb - кучево-дождевые. Подробнее классификацию облаков см. в Атласе облаков (PDF).
T - Температура воздуха - температура, измеренная на высоте 2 м над землей.
Td - Температура точки росы - температура, при понижении до которой содержащийся в воздухе водяной пар достигнет насыщения.
f - Относительная влажность воздуха - влажноcть воздуха, измеренная на высоте 2 м над землей.
Te - Эффективная температура - температура, которую ощущает одетый по сезону человек в тени. Характеристика душности погоды. При расчете учитывается влияние влажности воздуха и скорости ветра на теплоощущения человека.
Tes - Эффективная температура на солнце - температура, которую ощущает человек, с поправкой на солнечный нагрев. Характеристика знойности погоды. Зависит от высоты солнца над горизонтом, облачности и скорости ветра. Ночью, в пасмурную погоду, а также при ветре 12 м/с и более поправка равна нулю.
P - Атмосферное давление - приведенное к уровню моря атмосферное давление.
Po - Атмосферное давление - измеренное на уровне метеостанции атмосферное давление.
Tmin - Минимальная температура - минимум температуры воздуха на высоте 2 м над землей.
Tmax - Максимальная температура - максимум температуры воздуха на высоте 2 м над землей.
R - Количество осадков - Количество выпавших осадков за период времени, мм. При наведении курсора мыши на число - период времени, за который выпало указанное количество осадков.
R24 - Количество осадков - Количество выпавших осадков за 24 часа, мм.
S - Снежный покров - Высота снежного покрова, см. При наведении курсора мыши на число - состояние снежного покрова и степень покрытия местности в баллах.